When you browse on this site, cookies collect data to enhance your experience and personalize the content and advertising you see.
Visit our Privacy Policy to learn more. By continuing to use the site, you agree to this use of cookies and data.
EN

Hourly Weather Mariupol

Today, 6 July, Monday

Time Temperature Precipitation Wind Pressure Humidity
00:00 +27°C° 0 mm 2 mps 752 mmHg 55%
01:00 +27°C° 0 mm 2 mps 752 mmHg 56%
02:00 +27°C° 0 mm 2 mps 752 mmHg 55%
03:00 +27°C° 0 mm 2 mps 752 mmHg 57%
04:00 +27°C° 0 mm 2 mps 752 mmHg 58%
05:00 +27°C° 0 mm 3 mps 752 mmHg 59%
06:00 +29°C° 0 mm 3 mps 752 mmHg 54%
07:00 +31°C° 0 mm 3 mps 752 mmHg 49%
08:00 +34°C° 0 mm 3 mps 752 mmHg 43%
09:00 +35°C° 0 mm 3 mps 752 mmHg 39%
10:00 +37°C° 0 mm 3 mps 752 mmHg 34%
11:00 +38°C° 0 mm 3 mps 751 mmHg 30%
12:00 +38°C° 0 mm 3 mps 751 mmHg 29%
13:00 +38°C° 0 mm 3 mps 751 mmHg 28%
14:00 +39°C° 0 mm 3 mps 751 mmHg 26%
15:00 +39°C° 0 mm 3 mps 750 mmHg 27%
16:00 +38°C° 0 mm 2 mps 750 mmHg 28%
17:00 +38°C° 0 mm 2 mps 750 mmHg 29%
18:00 +36°C° 0 mm 2 mps 750 mmHg 32%
19:00 +32°C° 0 mm 2 mps 750 mmHg 34%
20:00 +30°C° 0 mm 2 mps 750 mmHg 37%
21:00 +29°C° 0.4 mm 2 mps 750 mmHg 41%
22:00 +28°C° 0.4 mm 2 mps 750 mmHg 45%
23:00 +27°C° 0.4 mm 2 mps 750 mmHg 50%

Tomorrow, 7 July, Tuesday

Time Temperature Precipitation Wind Pressure Humidity
00:00 +27°C° 0 mm 2 mps 750 mmHg 48%
01:00 +27°C° 0 mm 3 mps 749 mmHg 47%
02:00 +26°C° 0 mm 3 mps 749 mmHg 45%
03:00 +26°C° 0 mm 3 mps 749 mmHg 45%
04:00 +26°C° 0 mm 3 mps 749 mmHg 45%
05:00 +26°C° 0 mm 3 mps 749 mmHg 44%
06:00 +28°C° 0 mm 3 mps 749 mmHg 41%
07:00 +30°C° 0 mm 3 mps 749 mmHg 38%
08:00 +32°C° 0 mm 2 mps 749 mmHg 35%
09:00 +34°C° 0 mm 3 mps 749 mmHg 33%
10:00 +35°C° 0 mm 3 mps 749 mmHg 31%
11:00 +37°C° 0 mm 4 mps 749 mmHg 29%
12:00 +37°C° 0 mm 3 mps 749 mmHg 29%
13:00 +37°C° 0 mm 3 mps 749 mmHg 29%
14:00 +37°C° 0 mm 3 mps 749 mmHg 29%
15:00 +37°C° 0 mm 2 mps 748 mmHg 31%
16:00 +36°C° 0 mm 2 mps 748 mmHg 33%
17:00 +36°C° 0 mm 2 mps 748 mmHg 36%
18:00 +34°C° 0.2 mm 2 mps 748 mmHg 40%
19:00 +31°C° 0.2 mm 1 mps 748 mmHg 44%
20:00 +29°C° 0.2 mm 1 mps 749 mmHg 48%
21:00 +28°C° 0.4 mm 2 mps 749 mmHg 52%
22:00 +27°C° 0.4 mm 4 mps 749 mmHg 56%
23:00 +27°C° 0.4 mm 5 mps 749 mmHg 60%

Day after tomorrow, 8 July, Wednesday

Time Temperature Precipitation Wind Pressure Humidity
00:00 +27°C° 0.1 mm 5 mps 749 mmHg 60%
01:00 +26°C° 0.1 mm 4 mps 749 mmHg 60%
02:00 +26°C° 0.1 mm 4 mps 749 mmHg 60%
03:00 +26°C° 0.2 mm 3 mps 749 mmHg 63%
04:00 +25°C° 0.2 mm 3 mps 749 mmHg 66%
05:00 +25°C° 0.2 mm 2 mps 749 mmHg 69%
06:00 +26°C° 0.3 mm 2 mps 750 mmHg 65%
07:00 +28°C° 0.3 mm 2 mps 750 mmHg 61%
08:00 +29°C° 0.3 mm 2 mps 750 mmHg 57%
09:00 +30°C° 0 mm 2 mps 751 mmHg 55%
10:00 +31°C° 0 mm 3 mps 751 mmHg 53%
11:00 +33°C° 0 mm 3 mps 751 mmHg 51%
12:00 +33°C° 0 mm 4 mps 751 mmHg 51%
13:00 +33°C° 0 mm 4 mps 752 mmHg 52%
14:00 +33°C° 0 mm 5 mps 752 mmHg 52%
15:00 +32°C° 0.3 mm 6 mps 752 mmHg 57%
16:00 +29°C° 0.3 mm 7 mps 753 mmHg 62%
17:00 +27°C° 0.3 mm 8 mps 753 mmHg 67%
18:00 +26°C° 0 mm 8 mps 754 mmHg 70%
19:00 +23°C° 0 mm 8 mps 754 mmHg 73%
20:00 +21°C° 0 mm 7 mps 755 mmHg 76%
21:00 +20°C° 0 mm 7 mps 755 mmHg 76%
22:00 +18°C° 0 mm 7 mps 755 mmHg 77%
23:00 +18°C° 0 mm 7 mps 756 mmHg 77%

9 July, Thursday

Time Temperature Precipitation Wind Pressure Humidity
00:00 +17°C° 0 mm 7 mps 756 mmHg 77%
01:00 +17°C° 0 mm 7 mps 756 mmHg 78%
02:00 +17°C° 0 mm 6 mps 757 mmHg 78%
03:00 +17°C° 0 mm 6 mps 757 mmHg 77%
04:00 +16°C° 0 mm 6 mps 757 mmHg 76%
05:00 +16°C° 0 mm 6 mps 757 mmHg 76%
06:00 +19°C° 0 mm 6 mps 758 mmHg 70%
07:00 +20°C° 0 mm 7 mps 758 mmHg 65%
08:00 +21°C° 0 mm 7 mps 758 mmHg 60%
09:00 +23°C° 0 mm 7 mps 758 mmHg 55%
10:00 +24°C° 0 mm 6 mps 759 mmHg 51%
11:00 +27°C° 0 mm 6 mps 759 mmHg 47%
12:00 +27°C° 0 mm 6 mps 759 mmHg 44%
13:00 +28°C° 0 mm 6 mps 759 mmHg 42%
14:00 +28°C° 0 mm 6 mps 759 mmHg 39%
15:00 +28°C° 0 mm 6 mps 759 mmHg 40%
16:00 +27°C° 0 mm 6 mps 759 mmHg 41%
17:00 +27°C° 0 mm 6 mps 759 mmHg 42%
18:00 +25°C° 0 mm 5 mps 759 mmHg 48%
19:00 +23°C° 0 mm 5 mps 760 mmHg 55%
20:00 +21°C° 0 mm 4 mps 760 mmHg 61%
21:00 +21°C° 0 mm 4 mps 760 mmHg 63%
22:00 +20°C° 0 mm 5 mps 761 mmHg 65%
23:00 +19°C° 0 mm 5 mps 761 mmHg 67%

10 July, Friday

Time Temperature Precipitation Wind Pressure Humidity
00:00 +19°C° 0 mm 5 mps 761 mmHg 70%
01:00 +19°C° 0 mm 4 mps 761 mmHg 73%
02:00 +18°C° 0 mm 4 mps 761 mmHg 76%
03:00 +18°C° 0 mm 4 mps 762 mmHg 77%
04:00 +18°C° 0 mm 4 mps 762 mmHg 78%
05:00 +18°C° 0 mm 4 mps 762 mmHg 78%
06:00 +20°C° 0 mm 4 mps 762 mmHg 71%
07:00 +22°C° 0 mm 3 mps 762 mmHg 64%
08:00 +25°C° 0 mm 3 mps 762 mmHg 57%
09:00 +26°C° 0 mm 3 mps 762 mmHg 52%
10:00 +27°C° 0 mm 3 mps 762 mmHg 47%
11:00 +28°C° 0 mm 2 mps 762 mmHg 43%
12:00 +29°C° 0 mm 2 mps 762 mmHg 40%
13:00 +29°C° 0 mm 2 mps 762 mmHg 38%
14:00 +30°C° 0 mm 2 mps 761 mmHg 36%
15:00 +29°C° 0 mm 2 mps 761 mmHg 36%
16:00 +29°C° 0 mm 2 mps 761 mmHg 36%
17:00 +29°C° 0 mm 2 mps 761 mmHg 36%
18:00 +27°C° 0 mm 3 mps 761 mmHg 41%
19:00 +25°C° 0 mm 3 mps 761 mmHg 46%
20:00 +22°C° 0 mm 4 mps 762 mmHg 52%
21:00 +21°C° 0 mm 4 mps 762 mmHg 53%
22:00 +21°C° 0 mm 5 mps 762 mmHg 55%
23:00 +20°C° 0 mm 5 mps 762 mmHg 57%

11 July, Saturday

Time Temperature Precipitation Wind Pressure Humidity
00:00 +20°C° 0 mm 5 mps 761 mmHg 60%
01:00 +19°C° 0 mm 6 mps 761 mmHg 62%
02:00 +19°C° 0 mm 6 mps 761 mmHg 65%
03:00 +19°C° 0 mm 6 mps 761 mmHg 67%
04:00 +19°C° 0 mm 6 mps 761 mmHg 69%
05:00 +19°C° 0 mm 6 mps 762 mmHg 71%
06:00 +21°C° 0 mm 6 mps 762 mmHg 65%
07:00 +23°C° 0 mm 6 mps 762 mmHg 60%
08:00 +24°C° 0 mm 6 mps 762 mmHg 54%
09:00 +27°C° 0 mm 6 mps 761 mmHg 49%
10:00 +28°C° 0 mm 6 mps 761 mmHg 44%
11:00 +29°C° 0 mm 6 mps 761 mmHg 40%
12:00 +30°C° 0 mm 6 mps 761 mmHg 38%
13:00 +30°C° 0 mm 5 mps 760 mmHg 36%
14:00 +32°C° 0 mm 5 mps 760 mmHg 35%
15:00 +32°C° 0 mm 5 mps 760 mmHg 35%
16:00 +30°C° 0 mm 4 mps 759 mmHg 36%
17:00 +30°C° 0 mm 4 mps 759 mmHg 37%
18:00 +28°C° 0 mm 4 mps 759 mmHg 42%
19:00 +26°C° 0 mm 4 mps 759 mmHg 48%
20:00 +23°C° 0 mm 4 mps 759 mmHg 53%
21:00 +23°C° 0 mm 4 mps 759 mmHg 54%
22:00 +22°C° 0 mm 5 mps 759 mmHg 54%
23:00 +21°C° 0 mm 5 mps 759 mmHg 55%
Show more